Погода в Верхнем Рогачике

Украина / Херсонская область     47°14′29″N   34°21′36″E
темп.,
°C
ветер,
м/с
пор.,
м/с
влажн.,
%
обл.,
%
осадки,
мм/ч
давл.,
гПа
погр.,
м
12 мая, ср
ср1200:00+8ссв37815 0.0 1015126
03:00+7ссв378530 0.1 1014212
06:00+8ссв3684100 0.3 1013456
09:00+10с2275100 1.0 1013635
12:00+12ссз336587 1.1 10131207
15:00+14сз335585 1.4 10131590
18:00+14зюз235386 0.0 10131367
21:00+10ю116814 0.0 101310
13 мая, чт
чт1300:00+8ююв347922 0.0 101351
03:00+7ююв228728 0.0 101319
06:00+9вюв338330 0.0 101372
09:00+15вюв447593 0.0 1013718
12:00+20юв4554100 0.0 10121304
15:00+22юв5548100 0.0 10111718
18:00+21юв465671 0.0 1011799
21:00+14вюв4879100 0.0 1011144
14 мая, пт
пт1400:00+13юв4890100 0.0 1010127
03:00+12ю34935 0.0 101053
06:00+12юз11895 0.0 101013
09:00+19юз2363100 0.0 1010404
12:00+23ююз4541100 0.0 1010977
15:00+25ююз4640100 0.0 10101373
18:00+23юз4654100 0.0 1010421
21:00+17юз48742 0.0 1011136
15 мая, сб
сб1500:00+14юз4684100 0.0 1011103
03:00+13юз3388100 0.0 101250
06:00+13юз358432 0.0 101294
09:00+20юз4663100 0.0 1013532
12:00+23зюз455050 0.0 10131364
15:00+24зюз354543 0.0 10131804
18:00+23юз2353100 0.0 1012570
21:00+17юв22695 0.0 101312
16 мая, вс
вс1600:00+16юз227499 0.0 101311
03:00+15с1173100 0.0 101211
06:00+15всв3479100 0.0 101266
09:00+21всв4661100 0.0 1011448
12:00+25всв5648100 0.0 10101243
15:00+27в563640 0.0 10081719
18:00+26св5750100 0.0 1007313
21:00+20всв486975 0.1 1007100